STARLINK-35318, 66146

Orbit data source: Space-Track

STARLINK-35318, 66146 is a payload satellite owned by SpaceX/Seattle (US) in LEO that was launched on Sat, 25 Oct 2025 UTC via an FALCON 9 launch vehicle from the Air Force Eastern Test Range (AFETR). Payload-class satellites include a variety of spacecraft equipped with specific instruments for various scientific and technological missions. These include communications satellites like Starlink; space stations such as the ISS; scientific satellites like the Hubble; Earth observation satellites from companies like Planet Labs, Umbra, and HawkEye 360; GPS; miniature CubeSats for education and research; and military/defense satellites.

Loading next visibility...
Identifier
66146, 2025-240A
Orbit
LEO
Country
Flag of USUS
Related business
Manufacturer
SpaceX/Seattle
Mission
Operational Commercial Communications
Bus & Motor
STARLINK V2MO, Unknown motor
Mass
575 kg wet, ~530 kg dry
Launch date (UTC)
2025-10-25 (8 months ago)
Launch vehicle
FALCON 9
Launch site
Air Force Eastern Test Range (AFETR)
Object type
Payload
Rocket body
Debris
Shape & HBR
Box + 2 Pan, 17.7 m
Radar Cross Section
36.964 m², Large (>1 m²)

Expand to show TLE details & history
Last TLE update: 11 hours ago

TLE from 11 hours ago
0 STARLINK-35318
1 66146U 25240A   26171.39657948  .00024732  00000-0  74040-3 0  9990
2 66146  53.1593 304.3198 0001132 105.1013 255.0115 15.34413300 37785
Epoch: 2026-06-20T09:31Z
TLE epoch observation values (Epoch: 2026-06-20T09:31:04.467Z)
Latitude
0.00001°
Longitude
-107.0606°
Altitude
463.765 km
Speed
7.636 km/s
True Right ascension
20h 17m 16s
True Declination
0° 00' 00"
Sunlit
Object was in full shadow at epoch
Visualization orbit readout
Latitude
Unknown
Longitude
Unknown
Altitude
Unknown
Speed
Unknown
Apparent Right ascension
Unknown
Apparent Declination
Unknown
Sunlit
N/A
Visualization observer readout
Local Sidereal Time
07:17:56
Azimuth
Unknown
Elevation
Unknown
Doppler factor
Unknown
Orbital elements
Apogee altitude
463.695 km
Perigee altitude
462.146 km
Semi-major axis
6,841.058 km
Eccentricity
0.00011
Inclination
53.1593°
RAAN
304.3198°
Arg. of periapsis
105.1013°
True anomaly
254.99897°
Mean anomaly
255.0115°
Eccentric anomaly
255.00523°
Mean motion
3.83582 °/min
Orbital period
93.85 mins
BSTAR
0.0007404
Loading maneuver chart data...
Computing Atmospheric mass density...
Loading historical data...
Loading historical data...
Loading historical data...
Loading historical data...
Loading historical data...
Loading historical data...
Loading historical data...

Documentation

Showing up to 5 results
|